Flag for U.S.A. Weather past 2 weeks in Racine, Wisconsin, U.S.A.

Now
56 °F

Clear.


Feels Like: 56 °F
Forecast: 55 / 69 °F
Wind: No wind

Location: Batten International Airport

Current Time: Sep 23, 2014 at 11:54:34 PM

Latest Report: Sep 23, 2014 at 10:53 PM


Visibility: 10 mi

Pressure: 30.32 "Hg

Humidity: 84%

Dew point: 51 °F

Location of RacineLocation

Historic Weather in Racine — Graph

°F

Racine temperature yesterday

Maximum temperature yesterday: 67 °F (at 3:53 PM)
Minimum temperature yesterday: 42 °F (at 6:53 AM)
Average temperature yesterday: 54 °F

Past Weeks' High & Low Weather Summary

 TemperatureHumidityPressure
High79 °F (Sep 10, 1:53 PM)96% (Sep 19, 1:55 AM)30.38 "Hg (Sep 19, 1:55 AM)
Low40 °F (Sep 13, 4:53 AM)44% (Sep 16, 11:53 AM)29.49 "Hg (Sep 10, 12:53 PM)
Average57 °F75%30.10 "Hg
* Reported Sep 8 9:53 PM — Sep 23 9:53 PM, Racine, Weather by CustomWeather, © 2014

Note: Actual official high and low records may vary slightly from our data, if they occured in-between our weather recording intervals... More about our weather records

Advertising

Racine weather history for previous 24 hours

 ConditionsComfort  
Time TempWeatherWind HumidityBarometerVisibility
9:53 PM
Sep 23
58 °FClear.3 mph78%30.32 "Hg10 mi
8:53 PM61 °FClear.6 mph70%30.31 "Hg10 mi
7:53 PM61 °FClear.6 mph65%30.31 "Hg10 mi
6:53 PM62 °FSunny.6 mph58%30.29 "Hg10 mi
5:53 PM66 °FSunny.9 mph52%30.29 "Hg10 mi
4:53 PM68 °FSunny.10 mph51%30.29 "Hg10 mi
3:53 PM70 °FSunny.9 mph49%30.29 "Hg10 mi
2:53 PM71 °FSunny.13 mph49%30.31 "Hg10 mi
1:53 PM73 °FSunny.3 mph44%30.32 "Hg10 mi
12:53 PM72 °FSunny.5 mph48%30.34 "Hg10 mi
11:53 AM70 °FSunny.7 mph49%30.34 "Hg10 mi
10:53 AM68 °FSunny.6 mph51%30.34 "Hg10 mi
9:53 AM64 °FSunny.9 mph58%30.34 "Hg10 mi
8:53 AM59 °FSunny.7 mph67%30.34 "Hg10 mi
7:53 AM54 °FSunny.7 mph72%30.32 "Hg10 mi
6:53 AM51 °FClear.5 mph80%30.31 "Hg10 mi
5:53 AM51 °FClear.5 mph80%30.30 "Hg10 mi
4:53 AM52 °FClear.7 mph77%30.29 "Hg10 mi
3:53 AM52 °FClear.7 mph80%30.28 "Hg10 mi
2:53 AM53 °FClear.5 mph77%30.27 "Hg10 mi
1:53 AM53 °FClear.3 mph77%30.27 "Hg10 mi
12:53 AM52 °FClear.5 mph80%30.27 "Hg10 mi
11:53 PM
Sep 22
53 °FClear.6 mph80%30.26 "Hg10 mi
Weather by CustomWeather, © 2014

See weather overviewHow to use our weather pages